DW9525 Weather Reports


time (UTC)temp
C
wind
direction
speed
KPH
gust
KPH
rain 1hr
cm
rain 24hr
cm
rain mn
cm
humidity
%
barometer
mb
20260508064554 16 134 0.0 0.0 0.00 0.00 0.00 74 1024.2
20260508063037 16 134 0.0 0.0 0.00 0.00 0.00 74 1024.4
20260508061539 16 134 0.0 0.0 0.00 0.00 0.00 74 1024.5
20260508060033 16 131 0.0 0.0 0.00 0.00 0.00 74 1024.3
20260508054536 16 220 0.0 0.0 0.00 0.00 0.00 74 1024.3
20260508053034 16 134 0.0 0.0 0.00 0.00 0.00 74 1024.4
20260508051531 16 134 0.0 0.0 0.00 0.00 0.00 74 1024.4
20260508050033 16 177 0.0 0.0 0.00 0.00 0.00 74 1024.3
20260508044530 16 194 0.0 0.0 0.00 0.00 0.00 73 1024.3
20260508043030 16 190 0.0 0.0 0.00 0.00 0.00 73 1024.1
20260508041529 15 190 0.0 0.0 0.00 0.00 0.00 73 1023.9
20260508040030 15 190 0.0 0.0 0.00 0.00 0.00 73 1023.7
20260508034541 15 190 0.0 0.0 0.00 0.00 0.00 73 1023.6
20260508033030 15 190 0.0 0.0 0.00 0.00 0.00 73 1023.3
20260508031535 16 194 0.0 0.0 0.00 0.00 0.00 73 1023.1
20260508030007 16 193 0.0 0.0 0.00 0.00 0.00 73 1022.8
20260508024516 16 194 0.0 0.0 0.00 0.00 0.00 72 1022.7
20260508023055 16 224 0.0 0.0 0.00 0.00 0.00 72 1022.4
20260508021604 17 210 0.0 0.0 0.00 0.00 0.00 72 1022.4
20260508020057 17 219 0.0 0.0 0.00 0.00 0.00 71 1022.2
20260508014556 17 219 0.0 0.0 0.00 0.00 0.00 71 1022.2
20260508013053 18 221 0.0 0.0 0.00 0.00 0.00 72 1022.2
20260508011602 18 216 0.0 0.0 0.00 0.00 0.00 72 1022.2
20260508010056 18 185 0.0 0.0 0.00 0.00 0.00 72 1022.0
20260508004558 19 188 0.0 0.0 0.00 0.00 0.00 72 1022.0
20260508003033 19 231 0.0 0.0 0.00 0.00 0.00 72 1021.9
20260508001542 20 221 0.0 0.0 0.00 0.00 0.00 72 1021.9
20260508000021 20 212 0.0 0.0 0.00 0.00 0.00 71 1021.9
20260507234521 20 211 0.0 0.0 0.00 0.00 0.00 71 1021.9
20260507233020 21 226 0.0 0.0 0.00 0.00 0.00 70 1021.9
20260507231522 21 233 0.0 0.0 0.00 0.00 0.00 69 1021.9
20260507230018 21 235 0.0 0.0 0.00 0.00 0.00 69 1021.9
20260507224519 21 221 0.0 0.0 0.00 0.00 0.00 69 1022.1
20260507223017 21 285 0.0 0.0 0.00 0.00 0.00 68 1022.2
20260507221515 21 240 0.0 0.0 0.00 0.00 0.00 68 1022.3
20260507220004 21 150 0.0 0.0 0.00 0.00 0.00 67 1022.4
20260507214502 22 291 0.0 0.0 0.00 0.00 0.00 67 1022.6
20260507213001 22 262 0.0 0.0 0.00 0.00 0.00 67 1022.8
20260507211605 22 255 0.0 0.0 0.00 0.00 0.00 67 1022.7
20260507211501 22 222 0.0 0.0 0.00 0.00 0.00 67 1022.8
20260507210111 22 288 0.0 0.0 0.00 0.00 0.00 68 1022.8
20260507204601 22 219 0.0 0.0 0.00 0.00 0.00 66 1022.9
20260507203127 22 228 0.0 0.0 0.00 0.00 0.00 65 1022.8
20260507201557 22 241 0.0 0.0 0.00 0.00 0.00 65 1022.9
20260507200045 22 315 0.0 0.0 0.00 0.00 0.00 63 1022.9
20260507194553 22 316 0.0 0.0 0.00 0.00 0.00 64 1023.1
20260507193041 22 309 0.0 0.0 0.00 0.00 0.00 64 1023.2
20260507191539 22 347 0.0 0.0 0.00 0.00 0.00 64 1023.4
20260507190035 22 315 0.0 0.0 0.00 0.00 0.00 65 1023.5
20260507184534 22 221 0.0 0.0 0.00 0.00 0.00 66 1023.8
20260507183029 22 131 0.0 0.0 0.00 0.00 0.00 67 1023.8
20260507181526 21 202 0.0 0.0 0.00 0.00 0.00 67 1023.8
20260507180012 21 232 0.0 0.0 0.00 0.00 0.00 69 1023.8
20260507174508 20 310 0.0 0.0 0.00 0.00 0.00 70 1024.0
20260507173008 20 320 0.0 0.0 0.00 0.00 0.00 70 1024.1
20260507171601 20 341 0.0 0.0 0.00 0.00 0.00 71 1024.1
20260507170058 20 341 0.0 0.0 0.00 0.00 0.00 70 1024.2
20260507164552 19 316 0.0 0.0 0.00 0.00 0.00 70 1024.3
20260507163048 19 323 0.0 0.0 0.00 0.00 0.00 71 1024.3
20260507161549 18 356 0.0 0.0 0.00 0.00 0.00 72 1024.4
20260507160047 18 2 0.0 0.0 0.00 0.00 0.00 73 1024.4
20260507154526 17 72 0.0 0.0 0.00 0.00 0.00 73 1024.6
20260507153019 17 169 0.0 0.0 0.00 0.00 0.00 73 1024.8
20260507151515 15 169 0.0 0.0 0.00 0.00 0.00 73 1024.9
20260507150014 14 169 0.0 0.0 0.00 0.00 0.00 74 1024.9
20260507144506 12 169 0.0 0.0 0.00 0.00 0.00 74 1024.8
20260507143001 11 169 0.0 0.0 0.00 0.00 0.00 74 1024.6
20260507141602 11 169 0.0 0.0 0.00 0.00 0.00 74 1024.6
20260507140053 10 169 0.0 0.0 0.00 0.00 0.00 74 1024.5
20260507134537 10 169 0.0 0.0 0.00 0.00 0.00 74 1024.4
20260507133059 8 206 0.0 0.0 0.00 0.00 0.00 74 1024.1
20260507131529 8 206 0.0 0.0 0.00 0.00 0.00 75 1024.1
20260507130029 9 206 0.0 0.0 0.00 0.00 0.00 74 1024.1
20260507124528 9 220 0.0 0.0 0.00 0.00 0.00 74 1024.0
20260507123035 9 220 0.0 0.0 0.00 0.00 0.00 74 1023.9
20260507121525 9 226 0.0 0.0 0.00 0.00 0.00 75 1023.9
20260507120024 9 226 0.0 0.0 0.00 0.00 0.00 75 1024.0
20260507114511 9 352 0.0 0.0 0.00 0.00 0.00 75 1024.0
20260507113012 9 352 0.0 0.0 0.00 0.00 0.00 75 1024.0
20260507111509 9 352 0.0 0.0 0.00 0.00 0.00 75 1024.2
20260507110008 9 352 0.0 0.0 0.00 0.00 0.00 75 1024.2
20260507104507 9 353 0.0 0.0 0.00 0.00 0.00 75 1024.2
20260507103003 10 353 0.0 0.0 0.00 0.00 0.00 75 1024.2
20260507101503 10 352 0.0 0.0 0.00 0.00 0.00 75 1024.2
20260507100100 10 346 0.0 0.0 0.00 0.00 0.00 74 1024.2
20260507094553 10 345 0.0 0.0 0.00 0.00 0.00 75 1024.5
20260507093041 10 345 0.0 0.0 0.00 0.00 0.00 75 1024.5
20260507091533 10 345 0.0 0.0 0.00 0.00 0.00 74 1024.7
20260507090030 10 345 0.0 0.0 0.00 0.00 0.00 74 1024.9
20260507084529 10 323 0.0 0.0 0.00 0.00 0.00 74 1025.0
20260507083030 10 323 0.0 0.0 0.00 0.00 0.00 74 1025.2
20260507081536 10 324 0.0 0.0 0.00 0.00 0.00 74 1025.3
20260507080028 11 324 0.0 0.0 0.00 0.00 0.00 74 1025.4
20260507074528 11 324 0.0 0.0 0.00 0.00 0.00 74 1025.1
20260507073027 11 324 0.0 0.0 0.00 0.00 0.00 74 1025.1
20260507071513 11 324 0.0 0.0 0.00 0.00 0.00 73 1025.2
20260507070017 11 324 0.0 0.0 0.00 0.00 0.00 73 1025.3